Location: Sternwarte ZA, Rosenfeld-Brittheim
(48.2889°N, 8.6789°E)
Time: 07:24:23
(UTC+02:00)

ISS - Pass Details

Date: 17 May 2021
Orbit: 417 x 422 km, 51.6° (Epoch: 18 June)

Event Time Altitude Azimuth Distance (km) Brightness Sun altitude
Rises 00:26:24 0° 273° (W) 2,366 0.3 -21.3°
Reaches altitude 10° 00:28:33 10° 280° (W) 1,504 -0.7 -21.4°
Maximum altitude 00:31:49 46° 355° (N) 575 -2.7 -21.5°
Drops below altitude 10° 00:35:06 10° 71° (ENE) 1,508 -0.9 -21.6°
Sets 00:37:16 0° 77° (ENE) 2,374 0.1 -21.7°
